Flag for Egypt Weather past 2 weeks in Al Jizah, Egypt

Now
99 °F

Sunny.


Feels Like: 93 °F
Forecast: 65 / 92 °F
Wind: 6 mph from North

Location: Cairo Airport


UV Index: 7 (High)

Visibility: 10 mi


Pressure: 29.68 "Hg

Humidity: 10%

Dew point: 32 °F

Location of Al JizahLocation

Historic Weather in Al Jizah

°F

Al Jizah temperature yesterday

Maximum temperature yesterday: 91 °F (at 4:00 PM)
Minimum temperature yesterday: 64 °F (at 5:30 AM)
Average temperature yesterday: 78 °F

Past Weeks' High & Low Weather Summary

 TemperatureHumidityPressure
High99 °F (Apr 24, 3:00 PM)94% (Apr 17, 2:30 AM)30.07 "Hg (Apr 17, 2:30 AM)
Low57 °F (Apr 21, 5:30 AM)10% (Apr 18, 2:30 PM)29.68 "Hg (Apr 24, 3:30 PM)
Average72 °F49%29.94 "Hg
* Reported Apr 9 4:00 PM — Apr 24 4:00 PM, Al Jizah, Weather by CustomWeather, © 2014

Note: Actual official high and low records may vary slightly from our data, if they occured in-between our weather recording intervals... More about our weather records

Advertising

Historic Weather Conditions — Data for Previous 24 hours

 ConditionsComfort  
Time TempWeatherWind HumidityBarometerVisibility
4:00 PM
Apr 24
99 °FSunny.6 mph10%29.68 "Hg10 mi
3:30 PM99 °FSunny.1 mph10%29.68 "Hg10 mi
3:00 PM99 °FSunny.2 mph10%29.71 "Hg10 mi
2:30 PM97 °FSunny.5 mph10%29.71 "Hg10 mi
2:00 PM97 °FSunny.7 mph11%29.74 "Hg10 mi
1:30 PM95 °FSunny.8 mph12%29.74 "Hg10 mi
1:00 PM95 °FSunny.8 mph11%29.77 "Hg10 mi
12:30 PM95 °FSunny.8 mph12%29.77 "Hg10 mi
12:00 PM93 °FSunny.13 mph14%29.77 "Hg10 mi
11:30 AM90 °FSunny.12 mph17%29.80 "Hg10 mi
11:00 AM90 °FSunny.12 mph17%29.80 "Hg10 mi
10:30 AM86 °FSunny.17 mph20%29.80 "Hg10 mi
10:00 AM86 °FSunny.17 mph20%29.80 "Hg10 mi
9:30 AM84 °FSunny.15 mph25%29.83 "Hg10 mi
9:00 AM81 °FSunny.15 mph28%29.83 "Hg10 mi
8:30 AM77 °FSunny.15 mph36%29.83 "Hg10 mi
8:00 AM73 °FSunny.14 mph44%29.83 "Hg10 mi
7:30 AM70 °FSunny.14 mph53%29.83 "Hg10 mi
7:00 AM68 °FSunny.13 mph60%29.83 "Hg10 mi
6:30 AM66 °FSunny.16 mph64%29.83 "Hg10 mi
6:00 AM66 °FSunny.13 mph56%29.83 "Hg10 mi
5:30 AM70 °FSunny.12 mph43%29.83 "Hg10 mi
5:00 AM68 °FClear.10 mph49%29.80 "Hg10 mi
4:30 AM66 °FClear.9 mph68%29.83 "Hg10 mi
4:00 AM66 °FClear.10 mph68%29.83 "Hg10 mi
3:30 AM66 °FClear.10 mph64%29.83 "Hg10 mi
3:00 AM68 °FClear.12 mph60%29.83 "Hg10 mi
2:30 AM68 °FClear.12 mph56%29.86 "Hg10 mi
2:00 AM68 °FClear.12 mph56%29.86 "Hg10 mi
1:30 AM68 °FClear.14 mph60%29.89 "Hg10 mi
1:00 AM70 °FClear.14 mph60%29.89 "Hg10 mi
12:30 AM70 °FClear.13 mph60%29.89 "Hg10 mi
12:00 AM70 °FClear.15 mph60%29.92 "Hg10 mi
11:30 PM
Apr 23
72 °FClear.17 mph53%29.92 "Hg10 mi
11:00 PM73 °FClear.17 mph47%29.92 "Hg10 mi
10:30 PM73 °FClear.17 mph44%29.92 "Hg10 mi
10:00 PM75 °FClear.16 mph39%29.92 "Hg10 mi
9:30 PM75 °FClear.17 mph36%29.92 "Hg10 mi
9:00 PM77 °FClear.17 mph34%29.92 "Hg10 mi
8:30 PM79 °FClear.15 mph32%29.92 "Hg10 mi
8:00 PM81 °FClear.17 mph30%29.92 "Hg10 mi
7:30 PM82 °FClear.14 mph30%29.89 "Hg10 mi
7:00 PM82 °FClear.14 mph30%29.89 "Hg10 mi
6:30 PM84 °FClear.16 mph27%29.89 "Hg10 mi
6:00 PM86 °FSunny.16 mph25%29.89 "Hg10 mi
5:30 PM88 °FSunny.17 mph21%29.89 "Hg10 mi
5:00 PM90 °FSunny.17 mph18%29.89 "Hg10 mi
4:30 PM91 °FSunny.17 mph16%29.89 "Hg10 mi
4:00 PM91 °FSunny.16 mph16%29.89 "Hg10 mi
Weather by CustomWeather, © 2014

See weather overview